Regional Weather Roundup
Issued by NWS

Home | Current Version | Previous Version | Text Only | Print | Product List | Glossary Off
Versions: 1 2 3 4 5 6 7 8 9 10 11 12 13 14 15 16 17 18 19 20 21 22 23 24 25 26 27 28 29 30 31 32 33 34 35 36 37 38 39 40 41 42 43 44 45 46 47 48 49 50

000
ASUS43 KIND 160509
RWRIN

WEATHER ROUNDUP FOR INDIANA
NATIONAL WEATHER SERVICE INDIANAPOLIS IN
1200 AM EST SAT DEC 16 2017

NOTE: "FAIR" INDICATES FEW OR NO CLOUDS BELOW 12,000 FEET WITH NO
SIGNIFICANT WEATHER AND/OR OBSTRUCTIONS TO VISIBILITY.

* - STATION DOES NOT REPORT WEATHER SUCH AS PRECIPITATION OR FOG.

+ - STATION NOT QUALITY CONTROLLED BY THE NATIONAL WEATHER SERVICE.
    USE DATA WITH CAUTION...ESPECIALLY DEWPOINT AND RELATIVE
    HUMIDITY OBSERVATIONS.

INZ001>003-010>013-019-020-160600-
NORTHWEST INDIANA

CITY           SKY/WX    TMP DP  RH WIND       PRES   REMARKS
GARY /AIRPORT/ CLOUDY    39  19  45 SW12G17   29.92S WCI  32
KNOX *+        CLOUDY    34  23  64 SW10      29.93F WCI  26
LA PORTE +     CLOUDY    32  23  69 SW10      29.92S WCI  24
MICHIGAN CITY+ CLOUDY    34  23  64 SW13G18   29.91F WCI  25
MONTICELLO +   CLOUDY    33  20  59 SW15      29.97S WCI  23
RENSSELAER +   CLOUDY    36  16  44 SW15G22   29.96S WCI  26
VALPARAISO     CLOUDY    37  22  54 SW17      29.92F WCI  27

$$

LMZ046-743>745-160600-
SOUTHERN LAKE MICHIGAN

STATION/POSITION TIME  TEMP    WIND        PRES    WAVE
                       AIR SEA DIR/SP/G            HT
                 (UTC) (F)     (DEG/KT/KT) (MB)    (FT)
BURNS HARBOR     0430   36     220/ 16/ 20 1013.2F
MICHIGAN CITY    0440   35     200/ 16/ 18   N/A

$$

INZ004-005-014>016-021>024-160600-
NORTH CENTRAL INDIANA

CITY           SKY/WX    TMP DP  RH WIND       PRES   REMARKS
GOSHEN         CLOUDY    30  22  72 SW9       29.92F WCI  22
LOGANSPORT +   CLOUDY    32  23  69 SW14      29.98F WCI  22
PERU/GRISSOM   CLOUDY    33  22  62 SW18      29.96F WCI  22
ROCHESTER +    CLOUDY    34  25  69 SW12G18   29.95S WCI  25
SOUTH BEND     CLOUDY    31  23  72 SW9       29.91F WCI  23
WARSAW +       CLOUDY    32  21  64 SW10G16   29.93F WCI  24

$$

INZ006>009-017-018-025>027-160600-
NORTHEAST INDIANA

CITY           SKY/WX    TMP DP  RH WIND       PRES   REMARKS
AUBURN +       FLURRIES  32  21  64 SW9       29.95F WCI  24
FORT WAYNE     CLOUDY    31  23  72 SW15      29.96F WCI  20
HUNTINGTON +   CLOUDY    31  20  63 SW13      29.97F WCI  22
KENDALLVILLE + CLOUDY    31  22  71 SW13      29.92F WCI  21

$$

INZ028-029-035-036-043>045-051>053-160600-
WEST CENTRAL INDIANA

CITY           SKY/WX    TMP DP  RH WIND       PRES   REMARKS
CRAWFORDSVL +  PTCLDY    28  22  77 MISG      30.03S
GREENCASTLE +  CLOUDY    32  23  69 CALM      30.06S
LAFAYETTE      CLOUDY    33  22  63 SW9G17    30.01S WCI  25
TERRE HAUTE    CLEAR     31  22  69 S8        30.07S WCI  23

$$

INZ030>032-037>040-046>048-054>057-064-065-160600-
CENTRAL INDIANA

CITY           SKY/WX    TMP DP  RH WIND       PRES   REMARKS
FRANKFORT +    CLOUDY    35  24  65 SW20      30.02S WCI  24
GREENWOOD *+   CLOUDY    35  27  71 SW6       30.07S WCI  30
INDIANAPOLIS   CLOUDY    34  23  64 SW10      30.05S WCI  26
-EAGLE CREEK   CLOUDY    34  23  64 SW7       30.04S WCI  28
KOKOMO +       CLOUDY    33  22  63 SW20      29.99F WCI  21
MARION +       CLOUDY    32  22  67 SW14      30.00S WCI  22
MT COMFORT *+  CLOUDY    32  27  80 SW9       30.05S WCI  24
SHELBYVILLE    CLOUDY    31  23  72 S7        30.07R WCI  24
ZIONSVILLE +   CLOUDY    32  23  69 SW15G22   30.03S WCI  22

$$

INZ033-034-041-042-049-050-058-059-160600-
EAST CENTRAL INDIANA

CITY           SKY/WX    TMP DP  RH WIND       PRES   REMARKS
MUNCIE         CLOUDY    33  22  63 SW13      30.01S WCI  24
RICHMOND +     CLOUDY    28  25  86 SW10      30.06S WCI  19

$$

INZ060-061-067>069-081>083-085>088-160600-
SOUTHWEST INDIANA

CITY           SKY/WX    TMP DP  RH WIND       PRES   REMARKS
EVANSVILLE     CLEAR     33  26  75 S6        30.13S WCI  28
HUNTINGBURG +  CLOUDY    36  26  67 S5        30.13S WCI  32
WASHINGTON +   CLOUDY    33  25  71 S9        30.11R WCI  25

$$

INZ062-063-066-070>080-084-089>092-160600-
SOUTH CENTRAL AND SOUTHEAST INDIANA

CITY           SKY/WX    TMP DP  RH WIND       PRES   REMARKS
BEDFORD +      CLEAR     28  23  80 SW5       30.10R WCI  23
BLOOMINGTON    CLEAR     30  22  72 SW7       30.08R WCI  23
MADISON *+     CLOUDY    30  23  74 SW5       30.13S WCI  25
NORTH VERNON + CLOUDY    30  23  74 S7        30.11R WCI  23
SEYMOUR +      CLEAR     28  21  74 S9        30.11R WCI  20

$$





USA.gov is the U.S. government's official web portal to all federal, state and local government web resources and services.